Time,TemperatureF,DewpointF,PressureIn,WindDirection,WindDirectionDegrees,WindSpeedMPH,WindSpeedGustMPH,Humidity,HourlyPrecipIn,Conditions,Clouds,dailyrainin,SoftwareType,DateUTC
2013-05-31 00:02:00,69.5,64.1,30.03,SSE,160,0.0,0.0,83,0.00,,,0.00,WeatherCatV1.15B25,2013-05-31 04:02:00,
2013-05-31 00:03:00,69.5,64.1,30.03,SSE,160,0.0,0.0,83,0.00,,,0.00,WeatherCatV1.15B25,2013-05-31 04:03:00,
2013-05-31 00:05:00,69.6,64.2,30.03,SSE,161,0.0,0.0,83,0.00,,,0.00,WeatherCatV1.15B25,2013-05-31 04:05:00,
2013-05-31 00:08:00,69.6,64.2,30.03,SSE,161,0.0,0.0,83,0.00,,,0.00,WeatherCatV1.15B25,2013-05-31 04:08:00,
2013-05-31 00:09:00,69.6,64.2,30.03,SSE,161,0.0,0.0,83,0.00,,,0.00,WeatherCatV1.15B25,2013-05-31 04:09:00,
2013-05-31 00:14:00,69.9,64.1,30.03,SSE,161,0.0,0.0,82,0.00,,,0.00,WeatherCatV1.15B25,2013-05-31 04:14:00,
2013-05-31 00:19:00,70.2,64.4,30.03,SSE,161,0.0,0.0,82,0.00,,,0.00,WeatherCatV1.15B25,2013-05-31 04:19:00,
2013-05-31 00:24:00,70.5,64.4,30.03,SSE,160,0.0,0.0,81,0.00,,,0.00,WeatherCatV1.15B25,2013-05-31 04:24:00,
2013-05-31 00:29:00,70.9,64.4,30.02,SSE,160,0.0,0.0,80,0.00,,,0.00,WeatherCatV1.15B25,2013-05-31 04:29:00,
2013-05-31 00:34:00,71.3,64.4,30.03,SSE,161,0.0,0.0,79,0.00,,,0.00,WeatherCatV1.15B25,2013-05-31 04:34:00,
2013-05-31 00:39:00,71.4,64.2,30.03,SSE,160,0.0,0.0,78,0.00,,,0.00,WeatherCatV1.15B25,2013-05-31 04:39:00,
2013-05-31 00:44:00,71.4,64.2,30.02,SSE,161,0.0,0.0,78,0.00,,,0.00,WeatherCatV1.15B25,2013-05-31 04:44:00,
2013-05-31 00:49:00,71.3,64.1,30.03,SSE,161,0.0,0.0,78,0.00,,,0.00,WeatherCatV1.15B25,2013-05-31 04:49:00,
2013-05-31 00:54:00,71.3,64.1,30.02,SSE,161,0.0,0.0,78,0.00,,,0.00,WeatherCatV1.15B25,2013-05-31 04:54:00,
2013-05-31 00:59:00,71.3,64.1,30.02,SSE,161,0.0,0.0,78,0.00,,,0.00,WeatherCatV1.15B25,2013-05-31 04:59:00,
2013-05-31 01:04:00,71.4,64.2,30.02,SSE,161,0.0,0.0,78,0.00,,,0.00,WeatherCatV1.15B25,2013-05-31 05:04:00,
2013-05-31 01:09:00,71.4,64.2,30.02,SSE,161,0.0,0.0,78,0.00,,,0.00,WeatherCatV1.15B25,2013-05-31 05:09:00,
2013-05-31 01:14:00,71.2,64.0,30.02,SSE,160,0.0,0.0,78,0.00,,,0.00,WeatherCatV1.15B25,2013-05-31 05:14:00,
2013-05-31 01:19:00,71.1,64.2,30.02,SSE,160,0.0,0.0,79,0.00,,,0.00,WeatherCatV1.15B25,2013-05-31 05:19:00,
2013-05-31 01:24:00,71.0,64.1,30.02,SSE,160,0.0,0.0,79,0.00,,,0.00,WeatherCatV1.15B25,2013-05-31 05:24:00,
2013-05-31 01:29:00,71.0,64.1,30.02,SSE,161,0.0,0.0,79,0.00,,,0.00,WeatherCatV1.15B25,2013-05-31 05:29:00,
2013-05-31 01:34:00,71.0,63.8,30.02,SSE,160,0.0,0.0,78,0.00,,,0.00,WeatherCatV1.15B25,2013-05-31 05:34:00,
2013-05-31 01:39:00,71.1,63.9,30.02,SSE,161,0.0,0.0,78,0.00,,,0.00,WeatherCatV1.15B25,2013-05-31 05:39:00,
2013-05-31 01:44:00,71.3,64.1,30.03,SSE,161,0.0,0.0,78,0.00,,,0.00,WeatherCatV1.15B25,2013-05-31 05:44:00,
2013-05-31 01:49:00,71.5,64.3,30.03,SSE,161,0.0,0.0,78,0.00,,,0.00,WeatherCatV1.15B25,2013-05-31 05:49:00,
2013-05-31 01:54:00,71.4,64.2,30.03,SSE,161,0.0,0.0,78,0.00,,,0.00,WeatherCatV1.15B25,2013-05-31 05:54:00,
2013-05-31 01:59:00,71.4,64.2,30.03,SSE,160,0.0,0.0,78,0.00,,,0.00,WeatherCatV1.15B25,2013-05-31 05:59:00,
2013-05-31 02:04:00,71.3,64.1,30.02,SSE,161,0.0,0.0,78,0.00,,,0.00,WeatherCatV1.15B25,2013-05-31 06:04:00,
2013-05-31 02:09:00,71.2,64.0,30.02,SSE,161,0.0,0.0,78,0.00,,,0.00,WeatherCatV1.15B25,2013-05-31 06:09:00,
2013-05-31 02:14:00,71.1,63.9,30.02,SSE,160,0.0,0.0,78,0.00,,,0.00,WeatherCatV1.15B25,2013-05-31 06:14:00,
2013-05-31 02:19:00,71.0,63.8,30.02,SSE,160,0.0,0.0,78,0.00,,,0.00,WeatherCatV1.15B25,2013-05-31 06:19:00,
2013-05-31 02:24:00,71.0,64.1,30.02,SSE,161,0.0,0.0,79,0.00,,,0.00,WeatherCatV1.15B25,2013-05-31 06:24:00,
2013-05-31 02:29:00,70.9,64.1,30.02,SSE,161,0.0,0.0,79,0.00,,,0.00,WeatherCatV1.15B25,2013-05-31 06:29:00,
2013-05-31 02:34:00,70.9,64.1,30.02,SSE,161,0.0,0.0,79,0.00,,,0.00,WeatherCatV1.15B25,2013-05-31 06:34:00,
2013-05-31 02:39:00,71.0,63.8,30.02,SSE,161,1.0,2.0,78,0.00,,,0.00,WeatherCatV1.15B25,2013-05-31 06:39:00,
2013-05-31 02:44:00,71.0,63.8,30.02,SSE,161,0.0,0.0,78,0.00,,,0.00,WeatherCatV1.15B25,2013-05-31 06:44:00,
2013-05-31 02:49:00,70.9,64.1,30.02,SSE,160,0.0,0.0,79,0.00,,,0.00,WeatherCatV1.15B25,2013-05-31 06:49:00,
2013-05-31 02:54:00,71.1,63.9,30.01,SSE,160,0.0,1.0,78,0.00,,,0.00,WeatherCatV1.15B25,2013-05-31 06:54:00,
2013-05-31 02:59:00,71.2,63.6,30.01,SSE,161,0.0,0.0,77,0.00,,,0.00,WeatherCatV1.15B25,2013-05-31 06:59:00,
2013-05-31 03:04:00,71.1,63.9,30.01,SSE,161,1.0,2.0,78,0.00,,,0.00,WeatherCatV1.15B25,2013-05-31 07:04:00,
2013-05-31 03:09:00,70.9,63.7,30.00,SSE,160,0.0,0.0,78,0.00,,,0.00,WeatherCatV1.15B25,2013-05-31 07:09:00,
2013-05-31 03:14:00,70.7,63.5,30.00,SSE,161,0.0,0.0,78,0.00,,,0.00,WeatherCatV1.15B25,2013-05-31 07:14:00,
2013-05-31 03:19:00,70.8,63.6,30.00,SSE,161,0.0,0.0,78,0.00,,,0.00,WeatherCatV1.15B25,2013-05-31 07:19:00,
2013-05-31 03:24:00,70.8,63.6,30.00,SSE,160,0.0,0.0,78,0.00,,,0.00,WeatherCatV1.15B25,2013-05-31 07:24:00,
2013-05-31 03:29:00,70.7,63.5,30.00,SSE,160,0.0,0.0,78,0.00,,,0.00,WeatherCatV1.15B25,2013-05-31 07:29:00,
2013-05-31 03:34:00,70.6,63.4,30.00,SSE,160,0.0,0.0,78,0.00,,,0.00,WeatherCatV1.15B25,2013-05-31 07:34:00,
2013-05-31 03:39:00,70.5,63.3,30.00,SSE,161,0.0,0.0,78,0.00,,,0.00,WeatherCatV1.15B25,2013-05-31 07:39:00,
2013-05-31 03:44:00,70.4,63.6,30.00,SSE,161,0.0,0.0,79,0.00,,,0.00,WeatherCatV1.15B25,2013-05-31 07:44:00,
2013-05-31 03:49:00,70.4,63.2,30.01,SSE,161,0.0,0.0,78,0.00,,,0.00,WeatherCatV1.15B25,2013-05-31 07:49:00,
2013-05-31 03:54:00,70.4,63.2,30.01,SSE,161,0.0,0.0,78,0.00,,,0.00,WeatherCatV1.15B25,2013-05-31 07:54:00,
2013-05-31 03:59:00,70.4,63.2,30.01,SSE,161,0.0,0.0,78,0.00,,,0.00,WeatherCatV1.15B25,2013-05-31 07:59:00,
2013-05-31 04:04:00,70.4,63.6,30.01,SSE,160,0.0,0.0,79,0.00,,,0.00,WeatherCatV1.15B25,2013-05-31 08:04:00,
2013-05-31 04:09:00,70.3,63.5,30.00,SSE,160,0.0,0.0,79,0.00,,,0.00,WeatherCatV1.15B25,2013-05-31 08:09:00,
2013-05-31 04:14:00,70.2,63.4,30.00,SSE,161,0.0,0.0,79,0.00,,,0.00,WeatherCatV1.15B25,2013-05-31 08:14:00,
2013-05-31 04:19:00,70.1,63.3,30.00,SSE,161,0.0,0.0,79,0.00,,,0.00,WeatherCatV1.15B25,2013-05-31 08:19:00,
2013-05-31 04:24:00,70.2,63.4,30.00,SSE,156,0.0,0.0,79,0.00,,,0.00,WeatherCatV1.15B25,2013-05-31 08:24:00,
2013-05-31 04:29:00,70.2,63.4,30.00,SSE,156,0.0,0.0,79,0.00,,,0.00,WeatherCatV1.15B25,2013-05-31 08:29:00,
2013-05-31 04:34:00,70.1,63.3,30.00,SSE,156,0.0,0.0,79,0.00,,,0.00,WeatherCatV1.15B25,2013-05-31 08:34:00,
2013-05-31 04:39:00,70.1,63.6,30.00,SSE,156,0.0,0.0,80,0.00,,,0.00,WeatherCatV1.15B25,2013-05-31 08:39:00,
2013-05-31 04:44:00,69.9,63.4,30.01,SSE,156,0.0,0.0,80,0.00,,,0.00,WeatherCatV1.15B25,2013-05-31 08:44:00,
2013-05-31 04:49:00,69.9,63.4,30.01,SSE,156,0.0,0.0,80,0.00,,,0.00,WeatherCatV1.15B25,2013-05-31 08:49:00,
2013-05-31 04:54:00,69.7,63.2,30.01,SSE,156,0.0,0.0,80,0.00,,,0.00,WeatherCatV1.15B25,2013-05-31 08:54:00,
2013-05-31 04:59:00,69.7,63.2,30.01,SSE,156,0.0,0.0,80,0.00,,,0.00,WeatherCatV1.15B25,2013-05-31 08:59:00,
2013-05-31 05:04:00,69.7,63.2,30.01,SSE,156,0.0,0.0,80,0.00,,,0.00,WeatherCatV1.15B25,2013-05-31 09:04:00,
2013-05-31 05:09:00,69.7,63.2,30.01,SSE,156,0.0,0.0,80,0.00,,,0.00,WeatherCatV1.15B25,2013-05-31 09:09:00,
2013-05-31 05:14:00,69.8,63.3,30.01,SSE,156,0.0,0.0,80,0.00,,,0.00,WeatherCatV1.15B25,2013-05-31 09:14:00,
2013-05-31 05:19:00,69.7,63.6,30.01,SSE,156,0.0,0.0,81,0.00,,,0.00,WeatherCatV1.15B25,2013-05-31 09:19:00,
2013-05-31 05:24:00,69.8,63.3,30.01,SSE,156,0.0,0.0,80,0.00,,,0.00,WeatherCatV1.15B25,2013-05-31 09:24:00,
2013-05-31 05:29:00,69.8,63.3,30.01,NW,323,0.0,0.0,80,0.00,,,0.00,WeatherCatV1.15B25,2013-05-31 09:29:00,
2013-05-31 05:34:00,69.9,63.4,30.01,NE,52,0.0,3.0,80,0.00,,,0.00,WeatherCatV1.15B25,2013-05-31 09:34:00,
2013-05-31 05:39:00,70.1,63.6,30.01,East,95,0.0,2.0,80,0.00,,,0.00,WeatherCatV1.15B25,2013-05-31 09:39:00,
2013-05-31 05:44:00,70.1,63.3,30.01,East,95,0.0,0.0,79,0.00,,,0.00,WeatherCatV1.15B25,2013-05-31 09:44:00,
2013-05-31 05:49:00,70.0,63.5,30.01,East,92,0.0,0.0,80,0.00,,,0.00,WeatherCatV1.15B25,2013-05-31 09:49:00,
2013-05-31 05:54:00,69.8,63.3,30.01,East,92,2.0,3.0,80,0.00,,,0.00,WeatherCatV1.15B25,2013-05-31 09:54:00,
2013-05-31 05:59:00,69.8,63.3,30.01,East,91,0.0,3.0,80,0.00,,,0.00,WeatherCatV1.15B25,2013-05-31 09:59:00,
2013-05-31 06:04:00,69.9,63.4,30.01,East,94,0.0,2.0,80,0.00,,,0.00,WeatherCatV1.15B25,2013-05-31 10:04:00,
2013-05-31 06:09:00,70.0,63.5,30.01,East,94,0.0,3.0,80,0.00,,,0.00,WeatherCatV1.15B25,2013-05-31 10:09:00,
2013-05-31 06:14:00,69.9,63.4,30.01,East,94,0.0,0.0,80,0.00,,,0.00,WeatherCatV1.15B25,2013-05-31 10:14:00,
2013-05-31 06:19:00,69.8,63.3,30.02,East,94,0.0,0.0,80,0.00,,,0.00,WeatherCatV1.15B25,2013-05-31 10:19:00,
2013-05-31 06:24:00,69.7,63.2,30.02,East,94,0.0,0.0,80,0.00,,,0.00,WeatherCatV1.15B25,2013-05-31 10:24:00,
2013-05-31 06:29:00,69.7,63.6,30.02,East,94,0.0,0.0,81,0.00,,,0.00,WeatherCatV1.15B25,2013-05-31 10:29:00,
2013-05-31 06:34:00,69.8,63.7,30.02,East,94,0.0,0.0,81,0.00,,,0.00,WeatherCatV1.15B25,2013-05-31 10:34:00,
2013-05-31 06:39:00,69.9,63.4,30.02,East,94,0.0,2.0,80,0.00,,,0.00,WeatherCatV1.15B25,2013-05-31 10:39:00,
2013-05-31 06:44:00,70.0,63.5,30.02,ENE,59,2.0,2.0,80,0.00,,,0.00,WeatherCatV1.15B25,2013-05-31 10:44:00,
2013-05-31 06:49:00,70.2,63.7,30.02,ESE,114,0.0,2.0,80,0.00,,,0.00,WeatherCatV1.15B25,2013-05-31 10:49:00,
2013-05-31 06:54:00,70.2,63.7,30.02,ESE,113,1.0,1.0,80,0.00,,,0.00,WeatherCatV1.15B25,2013-05-31 10:54:00,
2013-05-31 06:59:00,70.5,63.7,30.02,ESE,116,0.0,0.0,79,0.00,,,0.00,WeatherCatV1.15B25,2013-05-31 10:59:00,
2013-05-31 07:04:00,70.6,63.8,30.02,ESE,116,0.0,0.0,79,0.00,,,0.00,WeatherCatV1.15B25,2013-05-31 11:04:00,
2013-05-31 07:09:00,70.7,64.2,30.02,South,184,0.0,0.0,80,0.00,,,0.00,WeatherCatV1.15B25,2013-05-31 11:09:00,
2013-05-31 07:14:00,70.7,64.2,30.02,SE,136,1.0,3.0,80,0.00,,,0.00,WeatherCatV1.15B25,2013-05-31 11:14:00,
2013-05-31 07:19:00,71.2,64.3,30.02,WNW,291,0.0,3.0,79,0.00,,,0.00,WeatherCatV1.15B25,2013-05-31 11:19:00,
2013-05-31 07:24:00,71.3,64.4,30.02,WNW,291,0.0,0.0,79,0.00,,,0.00,WeatherCatV1.15B25,2013-05-31 11:24:00,
2013-05-31 07:29:00,71.6,64.4,30.02,ESE,110,1.0,2.0,78,0.00,,,0.00,WeatherCatV1.15B25,2013-05-31 11:29:00,
2013-05-31 07:34:00,71.8,64.6,30.02,ESE,103,1.0,3.0,78,0.00,,,0.00,WeatherCatV1.15B25,2013-05-31 11:34:00,
2013-05-31 07:39:00,72.0,64.8,30.02,SE,142,1.0,2.0,78,0.00,,,0.00,WeatherCatV1.15B25,2013-05-31 11:39:00,
2013-05-31 07:44:00,72.2,64.6,30.01,SE,127,0.0,0.0,77,0.00,,,0.00,WeatherCatV1.15B25,2013-05-31 11:44:00,
2013-05-31 07:49:00,72.5,64.9,30.01,East,82,0.0,0.0,77,0.00,,,0.00,WeatherCatV1.15B25,2013-05-31 11:49:00,
2013-05-31 07:54:00,72.9,65.3,30.01,SSW,198,2.0,3.0,77,0.00,,,0.00,WeatherCatV1.15B25,2013-05-31 11:54:00,
2013-05-31 07:59:00,73.3,65.3,30.01,East,89,0.0,0.0,76,0.00,,,0.00,WeatherCatV1.15B25,2013-05-31 11:59:00,
2013-05-31 08:04:00,73.8,65.4,30.02,SE,146,0.0,1.0,75,0.00,,,0.00,WeatherCatV1.15B25,2013-05-31 12:04:00,
2013-05-31 08:09:00,74.3,65.5,30.02,SSE,162,0.0,0.0,74,0.00,,,0.00,WeatherCatV1.15B25,2013-05-31 12:09:00,
2013-05-31 08:14:00,74.5,65.3,30.02,SSE,159,0.0,0.0,73,0.00,,,0.00,WeatherCatV1.15B25,2013-05-31 12:14:00,
2013-05-31 08:19:00,75.0,65.3,30.02,SSW,193,0.0,4.0,72,0.00,,,0.00,WeatherCatV1.15B25,2013-05-31 12:19:00,
2013-05-31 08:30:00,75.7,65.6,30.01,ESE,119,0.0,4.0,71,0.00,,,0.00,WeatherCatV1.15B25,2013-05-31 12:30:00,
2013-05-31 08:35:00,75.8,65.3,30.01,ESE,110,4.0,4.0,70,0.00,,,0.00,WeatherCatV1.15B25,2013-05-31 12:35:00,
2013-05-31 08:40:00,76.0,66.3,30.01,ESE,114,0.0,1.0,72,0.00,,,0.00,WeatherCatV1.15B25,2013-05-31 12:40:00,
2013-05-31 08:45:00,76.3,66.6,30.01,ESE,114,0.0,0.0,72,0.00,,,0.00,WeatherCatV1.15B25,2013-05-31 12:45:00,
2013-05-31 08:50:00,76.7,66.6,30.01,SSE,163,0.0,4.0,71,0.00,,,0.00,WeatherCatV1.15B25,2013-05-31 12:50:00,
2013-05-31 08:55:00,76.8,66.7,30.02,SSE,167,1.0,1.0,71,0.00,,,0.00,WeatherCatV1.15B25,2013-05-31 12:55:00,
2013-05-31 09:00:00,76.9,65.9,30.01,East,86,2.0,5.0,69,0.00,,,0.00,WeatherCatV1.15B25,2013-05-31 13:00:00,
2013-05-31 09:05:00,77.1,67.0,30.02,SE,130,2.0,4.0,71,0.00,,,0.00,WeatherCatV1.15B25,2013-05-31 13:05:00,
2013-05-31 09:10:00,77.4,66.4,30.02,ESE,117,0.0,0.0,69,0.00,,,0.00,WeatherCatV1.15B25,2013-05-31 13:10:00,
2013-05-31 09:15:00,77.6,67.0,30.02,SSW,200,0.0,0.0,70,0.00,,,0.00,WeatherCatV1.15B25,2013-05-31 13:15:00,
2013-05-31 09:20:00,78.2,67.6,30.02,ESE,104,0.0,2.0,70,0.00,,,0.00,WeatherCatV1.15B25,2013-05-31 13:20:00,
2013-05-31 09:25:00,78.7,68.1,30.02,SE,144,0.0,0.0,70,0.00,,,0.00,WeatherCatV1.15B25,2013-05-31 13:25:00,
2013-05-31 09:30:00,79.0,67.5,30.02,ESE,113,3.0,4.0,68,0.00,,,0.00,WeatherCatV1.15B25,2013-05-31 13:30:00,
2013-05-31 09:35:00,79.3,66.5,30.02,ESE,110,0.0,3.0,65,0.00,,,0.00,WeatherCatV1.15B25,2013-05-31 13:35:00,
2013-05-31 09:40:00,79.4,67.0,30.02,ESE,121,1.0,5.0,66,0.00,,,0.00,WeatherCatV1.15B25,2013-05-31 13:40:00,
2013-05-31 09:45:00,79.8,66.5,30.01,SE,129,1.0,3.0,64,0.00,,,0.00,WeatherCatV1.15B25,2013-05-31 13:45:00,
2013-05-31 09:50:00,79.7,66.4,30.01,SSW,205,0.0,5.0,64,0.00,,,0.00,WeatherCatV1.15B25,2013-05-31 13:50:00,
2013-05-31 09:55:00,80.1,67.7,30.01,ESE,123,0.0,1.0,66,0.00,,,0.00,WeatherCatV1.15B25,2013-05-31 13:55:00,
2013-05-31 10:00:00,80.3,67.0,30.01,SSW,193,2.0,4.0,64,0.00,,,0.00,WeatherCatV1.15B25,2013-05-31 14:00:00,
2013-05-31 10:05:00,80.5,66.7,30.01,SSW,198,0.0,3.0,63,0.00,,,0.00,WeatherCatV1.15B25,2013-05-31 14:05:00,
2013-05-31 10:10:00,80.9,67.6,30.01,South,176,0.0,3.0,64,0.00,,,0.00,WeatherCatV1.15B25,2013-05-31 14:10:00,
2013-05-31 10:15:00,81.1,66.4,30.01,SE,124,0.0,10.0,61,0.00,,,0.00,WeatherCatV1.15B25,2013-05-31 14:15:00,
2013-05-31 10:20:00,81.1,67.3,30.01,SW,215,0.0,0.0,63,0.00,,,0.00,WeatherCatV1.15B25,2013-05-31 14:20:00,
2013-05-31 10:25:00,81.4,68.0,30.01,SSW,209,3.0,3.0,64,0.00,,,0.00,WeatherCatV1.15B25,2013-05-31 14:25:00,
2013-05-31 10:30:00,81.7,68.3,30.01,SW,223,0.0,4.0,64,0.00,,,0.00,WeatherCatV1.15B25,2013-05-31 14:30:00,
2013-05-31 10:35:00,82.2,69.2,30.00,ESE,115,1.0,4.0,65,0.00,,,0.00,WeatherCatV1.15B25,2013-05-31 14:35:00,
2013-05-31 10:40:00,82.5,68.6,30.00,SE,128,2.0,2.0,63,0.00,,,0.00,WeatherCatV1.15B25,2013-05-31 14:40:00,
2013-05-31 10:45:00,82.6,68.2,30.00,South,182,0.0,1.0,62,0.00,,,0.00,WeatherCatV1.15B25,2013-05-31 14:45:00,
2013-05-31 10:50:00,82.7,69.3,30.00,South,173,0.0,0.0,64,0.00,,,0.00,WeatherCatV1.15B25,2013-05-31 14:50:00,
2013-05-31 10:55:00,83.1,68.2,30.00,ESE,118,0.0,4.0,61,0.00,,,0.00,WeatherCatV1.15B25,2013-05-31 14:55:00,
2013-05-31 11:00:00,83.7,69.3,30.00,ESE,121,3.0,3.0,62,0.00,,,0.00,WeatherCatV1.15B25,2013-05-31 15:00:00,
2013-05-31 11:05:00,83.6,68.7,30.00,SE,129,1.0,4.0,61,0.00,,,0.00,WeatherCatV1.15B25,2013-05-31 15:05:00,
2013-05-31 11:10:00,83.6,68.2,30.00,ESE,121,4.0,6.0,60,0.00,,,0.00,WeatherCatV1.15B25,2013-05-31 15:10:00,
2013-05-31 11:15:00,84.1,70.1,30.00,SSE,153,0.0,0.0,63,0.00,,,0.00,WeatherCatV1.15B25,2013-05-31 15:15:00,
2013-05-31 11:20:00,84.2,70.2,30.00,ENE,76,2.0,2.0,63,0.00,,,0.00,WeatherCatV1.15B25,2013-05-31 15:20:00,
2013-05-31 11:25:00,84.2,69.7,29.99,South,182,0.0,4.0,62,0.00,,,0.00,WeatherCatV1.15B25,2013-05-31 15:25:00,
2013-05-31 11:30:00,84.3,70.3,29.99,East,96,0.0,4.0,63,0.00,,,0.00,WeatherCatV1.15B25,2013-05-31 15:30:00,
2013-05-31 11:35:00,84.4,68.0,30.00,NNE,26,0.0,1.0,58,0.00,,,0.00,WeatherCatV1.15B25,2013-05-31 15:35:00,
2013-05-31 11:40:00,85.2,70.2,29.99,WSW,238,3.0,3.0,61,0.00,,,0.00,WeatherCatV1.15B25,2013-05-31 15:40:00,
2013-05-31 11:45:00,85.1,69.1,29.99,ESE,114,1.0,3.0,59,0.00,,,0.00,WeatherCatV1.15B25,2013-05-31 15:45:00,
2013-05-31 11:50:00,85.2,68.2,29.99,ENE,57,4.0,4.0,57,0.00,,,0.00,WeatherCatV1.15B25,2013-05-31 15:50:00,
2013-05-31 11:55:00,85.9,66.7,29.99,ESE,110,2.0,4.0,53,0.00,,,0.00,WeatherCatV1.15B25,2013-05-31 15:55:00,
2013-05-31 12:00:00,85.9,67.8,29.99,SW,233,1.0,3.0,55,0.00,,,0.00,WeatherCatV1.15B25,2013-05-31 16:00:00,
2013-05-31 12:05:00,85.7,67.1,29.99,ESE,114,1.0,5.0,54,0.00,,,0.00,WeatherCatV1.15B25,2013-05-31 16:05:00,
2013-05-31 12:10:00,85.8,69.8,29.98,South,172,2.0,4.0,59,0.00,,,0.00,WeatherCatV1.15B25,2013-05-31 16:10:00,
2013-05-31 12:15:00,86.3,65.4,29.98,ESE,109,7.0,7.0,50,0.00,,,0.00,WeatherCatV1.15B25,2013-05-31 16:15:00,
2013-05-31 12:20:00,86.5,67.8,29.98,West,271,4.0,4.0,54,0.00,,,0.00,WeatherCatV1.15B25,2013-05-31 16:20:00,
2013-05-31 12:25:00,86.4,66.1,29.98,East,84,0.0,3.0,51,0.00,,,0.00,WeatherCatV1.15B25,2013-05-31 16:25:00,
2013-05-31 12:30:00,85.8,65.0,29.98,West,263,4.0,4.0,50,0.00,,,0.00,WeatherCatV1.15B25,2013-05-31 16:30:00,
2013-05-31 12:35:00,86.2,65.9,29.98,SSW,209,4.0,7.0,51,0.00,,,0.00,WeatherCatV1.15B25,2013-05-31 16:35:00,
2013-05-31 12:40:00,85.9,64.5,29.98,South,186,5.0,6.0,49,0.00,,,0.00,WeatherCatV1.15B25,2013-05-31 16:40:00,
2013-05-31 12:45:00,86.4,68.8,29.98,WSW,240,5.0,5.0,56,0.00,,,0.00,WeatherCatV1.15B25,2013-05-31 16:45:00,
2013-05-31 12:50:00,86.4,66.7,29.98,SSE,151,10.0,10.0,52,0.00,,,0.00,WeatherCatV1.15B25,2013-05-31 16:50:00,
2013-05-31 12:55:00,86.7,67.5,29.97,SE,130,0.0,6.0,53,0.00,,,0.00,WeatherCatV1.15B25,2013-05-31 16:55:00,
2013-05-31 13:00:00,86.8,65.9,29.97,SW,232,1.0,3.0,50,0.00,,,0.00,WeatherCatV1.15B25,2013-05-31 17:00:00,
2013-05-31 13:05:00,86.7,67.5,29.97,SSW,209,0.0,5.0,53,0.00,,,0.00,WeatherCatV1.15B25,2013-05-31 17:05:00,
2013-05-31 13:10:00,86.2,64.2,29.97,SSW,198,5.0,7.0,48,0.00,,,0.00,WeatherCatV1.15B25,2013-05-31 17:10:00,
2013-05-31 13:15:00,86.4,64.4,29.96,East,91,2.0,8.0,48,0.00,,,0.00,WeatherCatV1.15B25,2013-05-31 17:15:00,
2013-05-31 13:20:00,86.4,65.5,29.96,SSW,211,4.0,4.0,50,0.00,,,0.00,WeatherCatV1.15B25,2013-05-31 17:20:00,
2013-05-31 13:25:00,86.9,65.4,29.95,SE,129,0.0,3.0,49,0.00,,,0.00,WeatherCatV1.15B25,2013-05-31 17:25:00,
2013-05-31 13:30:00,87.3,66.9,29.95,SSW,192,3.0,5.0,51,0.00,,,0.00,WeatherCatV1.15B25,2013-05-31 17:30:00,
2013-05-31 13:35:00,87.0,64.9,29.95,SSW,209,0.0,4.0,48,0.00,,,0.00,WeatherCatV1.15B25,2013-05-31 17:35:00,
2013-05-31 13:40:00,87.1,68.4,29.95,SSW,211,5.0,5.0,54,0.00,,,0.00,WeatherCatV1.15B25,2013-05-31 17:40:00,
2013-05-31 13:45:00,87.2,64.5,29.94,East,84,4.0,6.0,47,0.00,,,0.00,WeatherCatV1.15B25,2013-05-31 17:45:00,
2013-05-31 13:50:00,87.5,65.4,29.94,WSW,248,3.0,4.0,48,0.00,,,0.00,WeatherCatV1.15B25,2013-05-31 17:50:00,
2013-05-31 13:55:00,87.8,64.4,29.94,SSW,205,4.0,4.0,46,0.00,,,0.00,WeatherCatV1.15B25,2013-05-31 17:55:00,
2013-05-31 14:00:00,88.0,66.4,29.93,ESE,111,7.0,7.0,49,0.00,,,0.00,WeatherCatV1.15B25,2013-05-31 18:00:00,
2013-05-31 14:05:00,87.7,63.7,29.93,South,186,0.0,7.0,45,0.00,,,0.00,WeatherCatV1.15B25,2013-05-31 18:05:00,
2013-05-31 14:10:00,88.0,66.4,29.93,ESE,123,4.0,5.0,49,0.00,,,0.00,WeatherCatV1.15B25,2013-05-31 18:10:00,
2013-05-31 14:15:00,88.0,63.3,29.93,ESE,113,6.0,9.0,44,0.00,,,0.00,WeatherCatV1.15B25,2013-05-31 18:15:00,
2013-05-31 14:20:00,87.7,61.7,29.92,SSW,195,3.0,7.0,42,0.00,,,0.00,WeatherCatV1.15B25,2013-05-31 18:20:00,
2013-05-31 14:25:00,87.8,65.0,29.92,South,183,2.0,10.0,47,0.00,,,0.00,WeatherCatV1.15B25,2013-05-31 18:25:00,
2013-05-31 14:30:00,87.9,64.5,29.92,South,176,2.0,6.0,46,0.00,,,0.00,WeatherCatV1.15B25,2013-05-31 18:30:00,
2013-05-31 14:35:00,87.6,63.0,29.92,SW,235,5.0,6.0,44,0.00,,,0.00,WeatherCatV1.15B25,2013-05-31 18:35:00,
2013-05-31 14:40:00,87.6,63.6,29.92,SE,130,3.0,6.0,45,0.00,,,0.00,WeatherCatV1.15B25,2013-05-31 18:40:00,
2013-05-31 14:45:00,87.3,64.6,29.91,SW,222,2.0,4.0,47,0.00,,,0.00,WeatherCatV1.15B25,2013-05-31 18:45:00,
2013-05-31 14:50:00,87.8,65.0,29.91,ESE,120,1.0,3.0,47,0.00,,,0.00,WeatherCatV1.15B25,2013-05-31 18:50:00,
2013-05-31 14:55:00,88.0,67.0,29.91,ESE,122,0.0,4.0,50,0.00,,,0.00,WeatherCatV1.15B25,2013-05-31 18:55:00,
2013-05-31 15:00:00,87.4,65.3,29.91,ESE,117,3.0,7.0,48,0.00,,,0.00,WeatherCatV1.15B25,2013-05-31 19:00:00,
2013-05-31 15:05:00,87.0,63.7,29.91,ESE,121,5.0,8.0,46,0.00,,,0.00,WeatherCatV1.15B25,2013-05-31 19:05:00,
2013-05-31 15:10:00,87.7,65.5,29.90,SE,126,8.0,10.0,48,0.00,,,0.00,WeatherCatV1.15B25,2013-05-31 19:10:00,
2013-05-31 15:15:00,87.9,64.5,29.90,WNW,302,2.0,7.0,46,0.00,,,0.00,WeatherCatV1.15B25,2013-05-31 19:15:00,
2013-05-31 15:20:00,87.8,65.6,29.90,SE,127,0.0,1.0,48,0.00,,,0.00,WeatherCatV1.15B25,2013-05-31 19:20:00,
2013-05-31 15:25:00,88.2,67.2,29.91,ESE,117,0.0,5.0,50,0.00,,,0.00,WeatherCatV1.15B25,2013-05-31 19:25:00,
2013-05-31 15:30:00,88.3,64.9,29.91,ESE,121,4.0,6.0,46,0.00,,,0.00,WeatherCatV1.15B25,2013-05-31 19:30:00,
2013-05-31 15:35:00,88.3,65.5,29.90,SSW,211,3.0,10.0,47,0.00,,,0.00,WeatherCatV1.15B25,2013-05-31 19:35:00,
2013-05-31 15:40:00,87.6,64.2,29.90,ESE,106,5.0,5.0,46,0.00,,,0.00,WeatherCatV1.15B25,2013-05-31 19:40:00,
2013-05-31 15:45:00,87.4,65.3,29.90,SE,124,0.0,2.0,48,0.00,,,0.00,WeatherCatV1.15B25,2013-05-31 19:45:00,
2013-05-31 15:50:00,87.5,65.9,29.90,SE,138,1.0,1.0,49,0.00,,,0.00,WeatherCatV1.15B25,2013-05-31 19:50:00,
2013-05-31 15:55:00,87.0,64.9,29.91,SW,225,3.0,4.0,48,0.00,,,0.00,WeatherCatV1.15B25,2013-05-31 19:55:00,
2013-05-31 16:00:00,81.4,63.7,29.92,West,260,2.0,10.0,55,0.00,,,0.00,WeatherCatV1.15B25,2013-05-31 20:00:00,
2013-05-31 16:05:00,76.7,64.0,29.92,WNW,293,0.0,3.0,65,0.00,,,0.00,WeatherCatV1.15B25,2013-05-31 20:05:00,
2013-05-31 16:10:00,74.7,63.8,29.92,WSW,242,4.0,5.0,69,0.00,,,0.00,WeatherCatV1.15B25,2013-05-31 20:10:00,
2013-05-31 16:15:00,73.1,63.5,29.93,West,273,3.0,6.0,72,0.00,,,0.00,WeatherCatV1.15B25,2013-05-31 20:15:00,
2013-05-31 16:20:00,71.6,63.2,29.93,West,262,4.0,5.0,75,0.00,,,0.00,WeatherCatV1.15B25,2013-05-31 20:20:00,
2013-05-31 16:25:00,71.0,63.4,29.92,SW,230,2.0,3.0,77,0.00,,,0.00,WeatherCatV1.15B25,2013-05-31 20:25:00,
2013-05-31 16:30:00,71.0,64.1,29.92,SW,235,0.0,1.0,79,0.00,,,0.00,WeatherCatV1.15B25,2013-05-31 20:30:00,
2013-05-31 16:35:00,71.1,64.2,29.92,SW,218,2.0,2.0,79,0.00,,,0.00,WeatherCatV1.15B25,2013-05-31 20:35:00,
2013-05-31 16:40:00,71.4,64.9,29.93,NNE,33,0.0,0.0,80,0.00,,,0.01,WeatherCatV1.15B25,2013-05-31 20:40:00,
2013-05-31 16:45:00,71.6,65.4,29.93,NE,34,0.0,0.0,81,0.11,,,0.02,WeatherCatV1.15B25,2013-05-31 20:45:00,
2013-05-31 16:50:00,71.7,65.9,29.93,NE,34,0.0,0.0,82,0.10,,,0.02,WeatherCatV1.15B25,2013-05-31 20:50:00,
2013-05-31 16:55:00,71.9,66.4,29.93,NE,34,0.0,0.0,83,0.05,,,0.02,WeatherCatV1.15B25,2013-05-31 20:55:00,
2013-05-31 17:00:00,72.2,67.4,29.93,NE,34,0.0,0.0,85,0.04,,,0.02,WeatherCatV1.15B25,2013-05-31 21:00:00,
2013-05-31 17:05:00,72.6,67.8,29.93,NE,34,0.0,0.0,85,0.00,,,0.02,WeatherCatV1.15B25,2013-05-31 21:05:00,
2013-05-31 17:10:00,73.2,68.4,29.93,NNE,33,0.0,1.0,85,0.00,,,0.02,WeatherCatV1.15B25,2013-05-31 21:10:00,
2013-05-31 17:15:00,74.3,69.5,29.93,NNE,33,0.0,0.0,85,0.00,,,0.02,WeatherCatV1.15B25,2013-05-31 21:15:00,
2013-05-31 17:20:00,75.6,70.8,29.92,NNE,33,0.0,0.0,85,0.00,,,0.02,WeatherCatV1.15B25,2013-05-31 21:20:00,
2013-05-31 17:25:00,76.9,71.3,29.92,NE,34,0.0,0.0,83,0.00,,,0.02,WeatherCatV1.15B25,2013-05-31 21:25:00,
2013-05-31 17:30:00,77.7,71.0,29.91,NE,34,0.0,1.0,80,0.00,,,0.02,WeatherCatV1.15B25,2013-05-31 21:30:00,
2013-05-31 17:35:00,78.3,70.1,29.92,NE,34,0.0,0.0,76,0.00,,,0.02,WeatherCatV1.15B25,2013-05-31 21:35:00,
2013-05-31 17:40:00,78.6,70.0,29.92,NE,34,0.0,0.0,75,0.00,,,0.02,WeatherCatV1.15B25,2013-05-31 21:40:00,
2013-05-31 17:45:00,78.5,70.3,29.92,NE,34,0.0,0.0,76,0.00,,,0.02,WeatherCatV1.15B25,2013-05-31 21:45:00,
2013-05-31 17:50:00,78.4,70.2,29.92,NE,34,0.0,0.0,76,0.00,,,0.02,WeatherCatV1.15B25,2013-05-31 21:50:00,
2013-05-31 17:55:00,77.4,66.8,29.94,WSW,244,3.0,7.0,70,0.00,,,0.02,WeatherCatV1.15B25,2013-05-31 21:55:00,
2013-05-31 18:00:00,74.5,65.3,29.97,SW,217,7.0,12.0,73,0.00,,,0.02,WeatherCatV1.15B25,2013-05-31 22:00:00,
2013-05-31 18:05:00,72.9,64.5,29.94,WNW,290,2.0,9.0,75,0.00,,,0.02,WeatherCatV1.15B25,2013-05-31 22:05:00,
2013-05-31 18:10:00,72.3,64.7,29.95,SW,230,5.0,5.0,77,0.00,,,0.02,WeatherCatV1.15B25,2013-05-31 22:10:00,
2013-05-31 18:15:00,71.8,64.6,29.95,WSW,240,4.0,5.0,78,0.00,,,0.02,WeatherCatV1.15B25,2013-05-31 22:15:00,
2013-05-31 18:20:00,71.1,64.6,29.95,WSW,241,4.0,5.0,80,0.00,,,0.03,WeatherCatV1.15B25,2013-05-31 22:20:00,
2013-05-31 18:25:00,70.4,64.6,29.95,WSW,249,2.0,4.0,82,0.00,,,0.03,WeatherCatV1.15B25,2013-05-31 22:25:00,
2013-05-31 18:30:00,70.0,64.6,29.95,WNW,282,3.0,6.0,83,0.00,,,0.03,WeatherCatV1.15B25,2013-05-31 22:30:00,
2013-05-31 18:35:00,70.0,64.6,29.94,WSW,246,5.0,5.0,83,0.00,,,0.03,WeatherCatV1.15B25,2013-05-31 22:35:00,
2013-05-31 18:40:00,69.9,64.8,29.94,SW,235,2.0,5.0,84,0.00,,,0.03,WeatherCatV1.15B25,2013-05-31 22:40:00,
2013-05-31 18:45:00,69.8,64.7,29.94,West,267,4.0,5.0,84,0.00,,,0.03,WeatherCatV1.15B25,2013-05-31 22:45:00,
2013-05-31 18:50:00,69.7,64.6,29.94,West,265,2.0,5.0,84,0.00,,,0.03,WeatherCatV1.15B25,2013-05-31 22:50:00,
2013-05-31 18:55:00,69.7,64.6,29.95,WSW,251,5.0,5.0,84,0.00,,,0.03,WeatherCatV1.15B25,2013-05-31 22:55:00,
2013-05-31 19:00:00,69.5,64.4,29.96,SW,232,2.0,6.0,84,0.00,,,0.03,WeatherCatV1.15B25,2013-05-31 23:00:00,
2013-05-31 19:05:00,69.4,64.3,29.97,SW,227,2.0,6.0,84,0.00,,,0.03,WeatherCatV1.15B25,2013-05-31 23:05:00,
2013-05-31 19:10:00,69.5,64.4,29.96,SW,226,2.0,4.0,84,0.00,,,0.03,WeatherCatV1.15B25,2013-05-31 23:10:00,
2013-05-31 19:15:00,69.6,64.5,29.96,WSW,250,1.0,4.0,84,0.00,,,0.03,WeatherCatV1.15B25,2013-05-31 23:15:00,
2013-05-31 19:20:00,69.8,65.1,29.96,South,190,0.0,3.0,85,0.00,,,0.04,WeatherCatV1.15B25,2013-05-31 23:20:00,
2013-05-31 19:25:00,69.8,65.1,29.93,NE,48,1.0,2.0,85,0.51,,,0.11,WeatherCatV1.15B25,2013-05-31 23:25:00,
2013-05-31 19:30:00,69.6,65.2,29.92,NE,49,0.0,0.0,86,0.10,,,0.11,WeatherCatV1.15B25,2013-05-31 23:30:00,
2013-05-31 19:35:00,69.4,65.4,29.93,NE,48,0.0,0.0,87,0.05,,,0.11,WeatherCatV1.15B25,2013-05-31 23:35:00,
2013-05-31 19:40:00,69.3,65.3,29.93,NE,48,0.0,0.0,87,0.04,,,0.12,WeatherCatV1.15B25,2013-05-31 23:40:00,
2013-05-31 19:45:00,69.3,65.3,29.93,NE,48,0.0,0.0,87,0.04,,,0.12,WeatherCatV1.15B25,2013-05-31 23:45:00,
2013-05-31 19:50:00,69.2,65.5,29.93,NE,49,0.0,0.0,88,0.04,,,0.12,WeatherCatV1.15B25,2013-05-31 23:50:00,
2013-05-31 19:55:00,69.2,65.5,29.93,NE,49,0.0,0.0,88,0.00,,,0.12,WeatherCatV1.15B25,2013-05-31 23:55:00,
2013-05-31 20:00:00,69.1,65.7,29.95,NE,45,3.0,3.0,89,0.00,,,0.12,WeatherCatV1.15B25,2013-06-01 00:00:00,
2013-05-31 20:05:00,69.1,65.7,29.97,WSW,250,11.0,11.0,89,0.00,,,0.12,WeatherCatV1.15B25,2013-06-01 00:05:00,
2013-05-31 20:10:00,69.4,65.7,29.98,SSW,213,7.0,7.0,88,0.00,,,0.12,WeatherCatV1.15B25,2013-06-01 00:10:00,
2013-05-31 20:15:00,69.2,64.8,29.98,WNW,294,3.0,11.0,86,0.34,,,0.14,WeatherCatV1.15B25,2013-06-01 00:15:00,
2013-05-31 20:20:00,68.1,63.7,29.99,SSW,210,3.0,9.0,86,0.78,,,0.23,WeatherCatV1.15B25,2013-06-01 00:20:00,
2013-05-31 20:25:00,67.6,63.6,29.98,WNW,297,4.0,7.0,87,0.20,,,0.25,WeatherCatV1.15B25,2013-06-01 00:25:00,
2013-05-31 20:30:00,67.3,63.3,29.97,SW,223,2.0,7.0,87,0.45,,,0.27,WeatherCatV1.15B25,2013-06-01 00:30:00,
2013-05-31 20:35:00,67.2,63.5,29.98,SW,219,3.0,6.0,88,0.23,,,0.30,WeatherCatV1.15B25,2013-06-01 00:35:00,
2013-05-31 20:40:00,67.2,63.5,29.97,West,273,2.0,6.0,88,0.22,,,0.32,WeatherCatV1.15B25,2013-06-01 00:40:00,
2013-05-31 20:45:00,67.2,63.5,29.97,West,273,0.0,0.0,88,0.29,,,0.34,WeatherCatV1.15B25,2013-06-01 00:45:00,
2013-05-31 20:50:00,67.2,63.8,29.98,West,273,0.0,0.0,89,0.17,,,0.36,WeatherCatV1.15B25,2013-06-01 00:50:00,
2013-05-31 20:55:00,67.3,63.9,29.97,West,273,0.0,0.0,89,0.18,,,0.37,WeatherCatV1.15B25,2013-06-01 00:55:00,
2013-05-31 21:00:00,67.3,63.9,29.97,West,273,0.0,0.0,89,0.07,,,0.37,WeatherCatV1.15B25,2013-06-01 01:00:00,
2013-05-31 21:05:00,67.3,63.9,29.96,West,273,0.0,0.0,89,0.07,,,0.38,WeatherCatV1.15B25,2013-06-01 01:05:00,
2013-05-31 21:10:00,67.3,63.9,29.96,West,273,0.0,0.0,89,0.06,,,0.38,WeatherCatV1.15B25,2013-06-01 01:10:00,
2013-05-31 21:15:00,67.3,63.9,29.95,West,273,0.0,0.0,89,0.04,,,0.38,WeatherCatV1.15B25,2013-06-01 01:15:00,
2013-05-31 21:20:00,67.3,63.9,29.95,West,273,0.0,0.0,89,0.14,,,0.40,WeatherCatV1.15B25,2013-06-01 01:20:00,
2013-05-31 21:25:00,67.3,63.9,29.95,West,273,0.0,0.0,89,0.11,,,0.40,WeatherCatV1.15B25,2013-06-01 01:25:00,
2013-05-31 21:30:00,67.3,64.3,29.95,West,273,0.0,0.0,90,0.06,,,0.40,WeatherCatV1.15B25,2013-06-01 01:30:00,
2013-05-31 21:35:00,67.3,64.3,29.95,West,273,0.0,0.0,90,0.04,,,0.40,WeatherCatV1.15B25,2013-06-01 01:35:00,
2013-05-31 21:40:00,67.4,64.4,29.94,West,273,0.0,0.0,90,0.00,,,0.40,WeatherCatV1.15B25,2013-06-01 01:40:00,
2013-05-31 21:45:00,67.4,64.4,29.94,West,273,0.0,0.0,90,0.00,,,0.40,WeatherCatV1.15B25,2013-06-01 01:45:00,
2013-05-31 21:50:00,67.3,64.3,29.94,West,273,0.0,0.0,90,0.00,,,0.40,WeatherCatV1.15B25,2013-06-01 01:50:00,
2013-05-31 21:55:00,67.3,64.3,29.94,West,273,0.0,0.0,90,0.00,,,0.40,WeatherCatV1.15B25,2013-06-01 01:55:00,
2013-05-31 22:00:00,67.4,64.4,29.93,West,273,0.0,0.0,90,0.00,,,0.40,WeatherCatV1.15B25,2013-06-01 02:00:00,
2013-05-31 22:05:00,67.5,64.5,29.93,West,273,0.0,0.0,90,0.00,,,0.40,WeatherCatV1.15B25,2013-06-01 02:05:00,
2013-05-31 22:10:00,67.5,64.5,29.93,West,273,0.0,0.0,90,0.00,,,0.40,WeatherCatV1.15B25,2013-06-01 02:10:00,
2013-05-31 22:15:00,67.5,64.5,29.93,West,273,0.0,0.0,90,0.00,,,0.40,WeatherCatV1.15B25,2013-06-01 02:15:00,
2013-05-31 22:21:00,67.6,64.6,29.93,West,273,0.0,0.0,90,0.00,,,0.40,WeatherCatV1.15B25,2013-06-01 02:21:00,
2013-05-31 22:26:00,67.6,64.9,29.93,West,273,0.0,0.0,91,0.00,,,0.40,WeatherCatV1.15B25,2013-06-01 02:26:00,
2013-05-31 22:31:00,67.6,64.9,29.93,West,273,0.0,0.0,91,0.00,,,0.40,WeatherCatV1.15B25,2013-06-01 02:31:00,
2013-05-31 22:36:00,67.8,65.1,29.92,West,273,0.0,0.0,91,0.00,,,0.40,WeatherCatV1.15B25,2013-06-01 02:36:00,
2013-05-31 22:41:00,67.9,65.2,29.92,West,273,0.0,0.0,91,0.00,,,0.40,WeatherCatV1.15B25,2013-06-01 02:41:00,
2013-05-31 22:46:00,67.9,65.2,29.93,West,273,0.0,0.0,91,0.00,,,0.40,WeatherCatV1.15B25,2013-06-01 02:46:00,
2013-05-31 22:51:00,67.8,65.1,29.95,West,273,1.0,2.0,91,0.00,,,0.40,WeatherCatV1.15B25,2013-06-01 02:51:00,
2013-05-31 22:56:00,67.8,65.1,29.95,West,273,0.0,0.0,91,0.00,,,0.40,WeatherCatV1.15B25,2013-06-01 02:56:00,
2013-05-31 23:01:00,67.7,65.0,29.96,ESE,102,1.0,3.0,91,1.83,,,0.46,WeatherCatV1.15B25,2013-06-01 03:01:00,
2013-05-31 23:06:00,67.6,64.9,29.95,ESE,102,0.0,1.0,91,0.42,,,0.50,WeatherCatV1.15B25,2013-06-01 03:06:00,
2013-05-31 23:11:00,67.5,64.8,29.94,ESE,102,0.0,0.0,91,0.25,,,0.52,WeatherCatV1.15B25,2013-06-01 03:11:00,
2013-05-31 23:16:00,67.5,64.8,29.94,ESE,102,0.0,0.0,91,0.22,,,0.53,WeatherCatV1.15B25,2013-06-01 03:16:00,
2013-05-31 23:21:00,67.5,64.8,29.94,ESE,102,0.0,0.0,91,0.10,,,0.54,WeatherCatV1.15B25,2013-06-01 03:21:00,
2013-05-31 23:26:00,67.5,64.8,29.94,ESE,102,0.0,0.0,91,0.16,,,0.55,WeatherCatV1.15B25,2013-06-01 03:26:00,
2013-05-31 23:31:00,67.5,64.8,29.94,ESE,102,0.0,0.0,91,0.12,,,0.56,WeatherCatV1.15B25,2013-06-01 03:31:00,
2013-05-31 23:36:00,67.4,64.7,29.94,ESE,102,0.0,0.0,91,0.21,,,0.58,WeatherCatV1.15B25,2013-06-01 03:36:00,
2013-05-31 23:41:00,67.5,64.8,29.93,ESE,102,0.0,0.0,91,0.16,,,0.59,WeatherCatV1.15B25,2013-06-01 03:41:00,
2013-05-31 23:46:00,67.5,64.8,29.93,ESE,102,0.0,0.0,91,0.12,,,0.60,WeatherCatV1.15B25,2013-06-01 03:46:00,
2013-05-31 23:51:00,67.5,64.8,29.93,ESE,102,0.0,0.0,91,0.11,,,0.61,WeatherCatV1.15B25,2013-06-01 03:51:00,
2013-05-31 23:56:00,67.5,64.8,29.92,ESE,102,0.0,0.0,91,0.06,,,0.61,WeatherCatV1.15B25,2013-06-01 03:56:00,